Regional Weather Roundup
Issued by NWS

Home | Current Version | Previous Version | Graphics & Text | Print | Product List | Glossary On
Versions: 1 2 3 4 5 6 7 8 9 10 11 12 13 14 15 16 17 18 19 20 21 22 23 24 25 26 27 28 29 30 31 32 33 34 35 36 37 38 39 40 41 42 43 44 45 46 47 48 49 50
000
ASUS45 KBOU 200007
RWRCO

WEATHER ROUNDUP FOR COLORADO
NATIONAL WEATHER SERVICE DENVER/BOULDER CO
600 PM MDT SUN OCT 19 2014

NOTE: "FAIR" INDICATES FEW OR NO CLOUDS BELOW 12000 FEET WITH NO
SIGNIFICANT WEATHER AND/OR OBSTRUCTIONS TO VISIBILITY.

COZ001>005-013-030-031-200100-
...NORTHWEST COLORADO...

CITY           SKY/WX    TMP DP  RH WIND       PRES   REMARKS
CRAIG          CLEAR     66  35  31 CALM      30.12S
HAYDEN         CLEAR     64  30  27 NW5       30.14R
MEEKER         MOCLDY    67  36  31 NE5       30.12S
MOUNT WERNER   NOT AVBL
STEAMBOAT SPGS CLEAR     65  27  24 CALM      30.15S
WALDEN         CLEAR     59  21  23 CALM      30.23S
$$

COZ006>008-011-200100-
...WEST CENTRAL VALLEYS...

CITY           SKY/WX    TMP DP  RH WIND       PRES   REMARKS
GRAND JUNCTION CLEAR     70  37  29 W7        30.02S
MONTROSE       CLEAR     70  36  28 N5        30.09S
EAGLE          PTCLDY    64  39  39 CALM      30.15R
RIFLE          PTCLDY    71  34  25 W3        30.05F
DELTA          CLEAR     75  33  20 SW7       30.03S
NUCLA          MOCLDY    70  32  24 CALM      30.11S
$$

COZ017>023-064>068-200100-
...SOUTHWEST COLORADO...

CITY           SKY/WX    TMP DP  RH WIND       PRES   REMARKS
DURANGO        TSTM      57  41  55 E16G24    30.19R
CORTEZ         CLOUDY    57  51  80 E10       30.14R
PAGOSA SPRINGS TSTM      59  37  42 SW8       30.23R
TELLURIDE      PTCLDY    55  33  44 W7        30.28R
WOLF CREEK PAS MOCLDY    36  32  87 S8        30.44R THUNDER
$$

COZ009-010-012-014-032>034-037-058>063-200100-
...CENTRAL COLORADO...

CITY           SKY/WX    TMP DP  RH WIND       PRES   REMARKS
ASPEN          PTCLDY    57  36  45 SE13      30.21R
BUENA VISTA    PTCLDY    56  33  41 SW8       30.22R
COPPER MTN     LGT RAIN  41  32  70 W6        30.46S
BERTHOUD PASS  FAIR      34  32  93 MISG      30.49S
COTTONWOOD PAS PTCLDY    50  32  50 W7        30.33R
GUNNISON       PTCLDY    61  30  31 W6        30.20S
KREMMLING      PTCLDY    63  21  20 CALM        N/A
LEADVILLE      CLOUDY    46  31  55 E9G21     30.32R
SALIDA         PTCLDY    60  35  38 S7        30.27R
SUNLIGHT       PTCLDY    48  32  53 NW5       30.39S
WILKERSON PASS NOT AVBL
$$

COZ069>075-200100-
...SAN LUIS VALLEY/SANGRE DE CRISTO MOUNTAINS...

CITY           SKY/WX    TMP DP  RH WIND       PRES   REMARKS
ALAMOSA        CLOUDY    62  33  33 E14       30.18R
LA VETA PASS   MOCLDY    45  32  61 E7        30.36S
SAGUACHE       PTCLDY    59  32  36 S5        30.21R
$$

COZ035-036-038>040-200100-
...NORTHERN COLORADO FRONT RANGE...

CITY           SKY/WX    TMP DP  RH WIND       PRES   REMARKS
DENVER INTL AP PTCLDY    65  34  31 E9        30.11R
DMNS CITY PARK   N/A     67  31  25 NE6       30.11R
AURORA         PTCLDY    64  35  33 E7        30.13R
FRONT RANGE AP CLEAR     64  37  36 E6        30.12
ERIE MUNI ARPT CLEAR     69  32  25 CALM      30.10R
BOULDER MUN AP CLEAR     68  34  28 CALM      30.10R
CENTENNIAL     PTCLDY    67  31  26 E7        30.13R
BROOMFIELD     PTCLDY    68  32  26 NE5       30.13R
FORT COLLINS   CLEAR     70  36  28 E6        30.09R
LONGMONT       CLEAR     70  33  26 CALM      30.11R
$$

COZ041-046-047-076>085-087-088-200100-
...PIKES PEAK/PALMER DIVIDE AND SOUTHERN FOOTHILLS...

CITY           SKY/WX    TMP DP  RH WIND       PRES   REMARKS
COLO. SPRINGS  PTCLDY    65  32  29 E8        30.15R
A. F. ACADEMY  NOT AVBL
ELLICOTT       NOT AVBL
FALCON         CLEAR     60  30  32 NE7       30.20R
FORT CARSON    PTCLDY    66  34  30 E8        30.12R
LIMON          CLEAR     63  36  36 NE8       30.11R
MONUMENT HILL  CLEAR     57  32  38 E6        30.20R
TRINIDAD       PTCLDY    63  37  38 NW10      30.12R
$$

COZ042>045-048>051-090-091-200100-
...NORTHEAST COLORADO...

CITY           SKY/WX    TMP DP  RH WIND       PRES   REMARKS
GREELEY ARPT   CLEAR     70  34  26 SE8       30.08R
AKRON          CLEAR     66  38  35 E7        30.08R
BURLINGTON     CLEAR     66  39  37 E7        30.06R
WRAY           CLEAR     70  34  26 NE8       30.04R
STERLING       CLEAR     70  43  37 NE5       30.04S
HOLYOKE        CLEAR     66  37  34 CALM      30.05R
FORT MORGAN    CLEAR     65  36  33 NE3       30.08S
$$

COZ086-089-092>099-200100-
...SOUTHEAST COLORADO...

CITY           SKY/WX    TMP DP  RH WIND       PRES   REMARKS
PUEBLO         CLEAR     73  34  23 SE5       30.05R
LA JUNTA       CLEAR     72  40  31 E8        30.03R
LAMAR          CLEAR     70  44  39 E6        30.00R
SPRINGFIELD      N/A     66  40  38 NE7       30.04R
$$


USA.gov is the U.S. government's official web portal to all federal, state and local government web resources and services.